Location: Peebles
(55.6412°N, 3.1714°W)
Time: 08:42:45
(UTC+00:00)

DOVE 4 - Pass Details

Date: 01 October 2023
Orbit: 583 x 785 km, 97.8° (Epoch: 03 December)

Event Time Altitude Azimuth Distance (km) Brightness Sun altitude
Rises 01:16:43 0° 8° (N) 3,096 ? -37.3°
Reaches altitude 10° 01:19:18 10° 355° (N) 2,210 ? -37.3°
Enters shadow 01:21:17 19° 334° (NNW) 1,696 ? -37.2°
